When you browse on this site, cookies collect data to enhance your experience and personalize the content and advertising you see.
Visit our Privacy Policy to learn more. By continuing to use the site, you agree to this use of cookies and data.
  • Em Portugal
  • Lista de países
  • Para 7 dias
  • Temperatura da água
  • Mapa do tempo
  • Widgets de tempo
  • user-avatar
    Iniciar Sessão

    Previsão horária em Bolshie Galashki

    Hoje, 29 Maio, Sexta-feira

    Tempo Temperatura Precipitação Vento Pressão Humidade
    00:00 +10°C° 0 mm 1 m/s 730 mmHg 89%
    01:00 +9°C° 0 mm 1 m/s 730 mmHg 91%
    02:00 +9°C° 0 mm 1 m/s 730 mmHg 91%
    03:00 +9°C° 0 mm 1 m/s 730 mmHg 92%
    04:00 +9°C° 0 mm 1 m/s 730 mmHg 89%
    05:00 +10°C° 0 mm 2 m/s 730 mmHg 81%
    06:00 +13°C° 0 mm 2 m/s 730 mmHg 73%
    07:00 +15°C° 0 mm 2 m/s 730 mmHg 65%
    08:00 +16°C° 0 mm 3 m/s 730 mmHg 58%
    09:00 +18°C° 0 mm 3 m/s 731 mmHg 52%
    10:00 +19°C° 0 mm 4 m/s 731 mmHg 45%
    11:00 +19°C° 0 mm 4 m/s 731 mmHg 45%
    12:00 +19°C° 0 mm 4 m/s 731 mmHg 45%
    13:00 +19°C° 0 mm 4 m/s 730 mmHg 45%
    14:00 +19°C° 0 mm 3 m/s 730 mmHg 46%
    15:00 +19°C° 0 mm 3 m/s 730 mmHg 47%
    16:00 +19°C° 0 mm 3 m/s 730 mmHg 48%
    17:00 +19°C° 0 mm 2 m/s 730 mmHg 53%
    18:00 +18°C° 0 mm 2 m/s 730 mmHg 57%
    19:00 +18°C° 0 mm 2 m/s 730 mmHg 62%
    20:00 +16°C° 0 mm 1 m/s 730 mmHg 68%
    21:00 +14°C° 0 mm 1 m/s 730 mmHg 75%
    22:00 +12°C° 0 mm 1 m/s 730 mmHg 81%
    23:00 +11°C° 0 mm 1 m/s 730 mmHg 83%

    Amanhã, 30 Maio, Sábado

    Tempo Temperatura Precipitação Vento Pressão Humidade
    00:00 +11°C° 0 mm 1 m/s 729 mmHg 84%
    01:00 +10°C° 0 mm 1 m/s 729 mmHg 86%
    02:00 +10°C° 0 mm 1 m/s 729 mmHg 86%
    03:00 +10°C° 0 mm 1 m/s 730 mmHg 87%
    04:00 +10°C° 0 mm 1 m/s 730 mmHg 87%
    05:00 +12°C° 0 mm 1 m/s 730 mmHg 80%
    06:00 +14°C° 0 mm 2 m/s 729 mmHg 73%
    07:00 +16°C° 0 mm 2 m/s 729 mmHg 66%
    08:00 +17°C° 0 mm 3 m/s 729 mmHg 60%
    09:00 +19°C° 0 mm 3 m/s 729 mmHg 55%
    10:00 +21°C° 0 mm 4 m/s 729 mmHg 49%
    11:00 +21°C° 0 mm 4 m/s 729 mmHg 48%
    12:00 +22°C° 0 mm 3 m/s 729 mmHg 46%
    13:00 +24°C° 0 mm 3 m/s 728 mmHg 45%
    14:00 +22°C° 0 mm 3 m/s 728 mmHg 48%
    15:00 +22°C° 0 mm 3 m/s 728 mmHg 50%
    16:00 +22°C° 0 mm 3 m/s 728 mmHg 53%
    17:00 +20°C° 0 mm 2 m/s 727 mmHg 60%
    18:00 +19°C° 0 mm 2 m/s 727 mmHg 66%
    19:00 +19°C° 0 mm 1 m/s 727 mmHg 73%
    20:00 +16°C° 0 mm 1 m/s 726 mmHg 80%
    21:00 +14°C° 0 mm 1 m/s 726 mmHg 88%
    22:00 +12°C° 0 mm 1 m/s 726 mmHg 95%
    23:00 +12°C° 0 mm 2 m/s 726 mmHg 96%

    Depois de amanhã, 31 Maio, Domingo

    Tempo Temperatura Precipitação Vento Pressão Humidade
    00:00 +10°C° 0 mm 2 m/s 726 mmHg 96%
    01:00 +9°C° 0 mm 2 m/s 725 mmHg 97%
    02:00 +9°C° 0 mm 2 m/s 725 mmHg 97%
    03:00 +9°C° 0 mm 2 m/s 725 mmHg 97%
    04:00 +9°C° 0 mm 2 m/s 724 mmHg 96%
    05:00 +10°C° 0 mm 2 m/s 724 mmHg 92%
    06:00 +10°C° 0 mm 3 m/s 724 mmHg 88%
    07:00 +11°C° 0 mm 4 m/s 724 mmHg 84%
    08:00 +11°C° 0 mm 4 m/s 723 mmHg 82%
    09:00 +11°C° 0 mm 4 m/s 723 mmHg 80%
    10:00 +9°C° 0 mm 5 m/s 723 mmHg 79%
    11:00 +9°C° 0 mm 5 m/s 722 mmHg 78%
    12:00 +9°C° 0 mm 5 m/s 722 mmHg 77%
    13:00 +9°C° 0 mm 5 m/s 722 mmHg 76%
    14:00 +9°C° 0.1 mm 5 m/s 722 mmHg 76%
    15:00 +8°C° 0.1 mm 5 m/s 722 mmHg 75%
    16:00 +8°C° 0.1 mm 5 m/s 721 mmHg 74%
    17:00 +7°C° 1.1 mm 5 m/s 721 mmHg 81%
    18:00 +5°C° 1.1 mm 6 m/s 720 mmHg 88%
    19:00 +4°C° 1.1 mm 6 m/s 720 mmHg 95%
    20:00 +5°C° 3.2 mm 5 m/s 720 mmHg 95%
    21:00 +5°C° 3.2 mm 5 m/s 720 mmHg 96%
    22:00 +5°C° 3.2 mm 5 m/s 720 mmHg 96%
    23:00 +5°C° 3.5 mm 5 m/s 720 mmHg 96%

    1 Junho, Segunda-feira

    Tempo Temperatura Precipitação Vento Pressão Humidade
    00:00 +5°C° 3.5 mm 5 m/s 720 mmHg 96%
    01:00 +6°C° 3.5 mm 5 m/s 720 mmHg 96%
    02:00 +6°C° 0 mm 4 m/s 720 mmHg 96%
    03:00 +6°C° 0 mm 4 m/s 720 mmHg 97%
    04:00 +5°C° 0 mm 3 m/s 720 mmHg 97%
    05:00 +7°C° 0.1 mm 3 m/s 720 mmHg 97%
    06:00 +7°C° 0.1 mm 2 m/s 720 mmHg 97%
    07:00 +7°C° 0.1 mm 2 m/s 720 mmHg 97%
    08:00 +7°C° 0.2 mm 2 m/s 721 mmHg 96%
    09:00 +7°C° 0.2 mm 3 m/s 721 mmHg 95%
    10:00 +8°C° 0.2 mm 3 m/s 721 mmHg 95%
    11:00 +8°C° 0.2 mm 3 m/s 721 mmHg 94%
    12:00 +8°C° 0.2 mm 3 m/s 722 mmHg 94%
    13:00 +9°C° 0.2 mm 3 m/s 722 mmHg 94%
    14:00 +9°C° 0.1 mm 3 m/s 722 mmHg 94%
    15:00 +9°C° 0.1 mm 2 m/s 722 mmHg 94%
    16:00 +9°C° 0.1 mm 2 m/s 722 mmHg 94%
    17:00 +9°C° 0 mm 2 m/s 722 mmHg 95%
    18:00 +9°C° 0 mm 2 m/s 722 mmHg 95%
    19:00 +9°C° 0 mm 2 m/s 722 mmHg 96%
    20:00 +9°C° 0.1 mm 2 m/s 722 mmHg 96%
    21:00 +8°C° 0.1 mm 2 m/s 722 mmHg 97%
    22:00 +8°C° 0.1 mm 2 m/s 722 mmHg 98%
    23:00 +8°C° 0.1 mm 2 m/s 722 mmHg 98%

    2 Junho, Terça-feira

    Tempo Temperatura Precipitação Vento Pressão Humidade
    00:00 +8°C° 0.1 mm 2 m/s 722 mmHg 98%
    01:00 +9°C° 0.1 mm 1 m/s 722 mmHg 99%
    02:00 +9°C° 0.1 mm 1 m/s 722 mmHg 99%
    03:00 +9°C° 0.1 mm 1 m/s 723 mmHg 99%
    04:00 +9°C° 0.1 mm 1 m/s 723 mmHg 98%
    05:00 +9°C° 0 mm 1 m/s 723 mmHg 98%
    06:00 +10°C° 0 mm 1 m/s 723 mmHg 98%
    07:00 +10°C° 0 mm 1 m/s 724 mmHg 97%
    08:00 +10°C° 0 mm 1 m/s 724 mmHg 96%
    09:00 +11°C° 0 mm 1 m/s 725 mmHg 94%
    10:00 +11°C° 0 mm 1 m/s 725 mmHg 93%
    11:00 +12°C° 0.1 mm 1 m/s 725 mmHg 92%
    12:00 +12°C° 0.1 mm 1 m/s 726 mmHg 92%
    13:00 +12°C° 0.1 mm 1 m/s 726 mmHg 91%
    14:00 +13°C° 0.1 mm 2 m/s 726 mmHg 89%
    15:00 +13°C° 0.1 mm 2 m/s 726 mmHg 87%
    16:00 +14°C° 0.1 mm 2 m/s 726 mmHg 85%
    17:00 +13°C° 0 mm 2 m/s 726 mmHg 87%
    18:00 +13°C° 0 mm 2 m/s 727 mmHg 89%
    19:00 +12°C° 0 mm 2 m/s 727 mmHg 91%
    20:00 +11°C° 0 mm 1 m/s 727 mmHg 93%
    21:00 +11°C° 0 mm 1 m/s 727 mmHg 95%
    22:00 +10°C° 0 mm 1 m/s 727 mmHg 97%
    23:00 +10°C° 0 mm 1 m/s 727 mmHg 97%

    3 Junho, Quarta-feira

    Tempo Temperatura Precipitação Vento Pressão Humidade
    00:00 +10°C° 0 mm 1 m/s 727 mmHg 97%
    01:00 +9°C° 0 mm 2 m/s 726 mmHg 97%
    02:00 +9°C° 0 mm 2 m/s 726 mmHg 97%
    03:00 +9°C° 0 mm 2 m/s 726 mmHg 97%
    04:00 +9°C° 0 mm 2 m/s 726 mmHg 97%
    05:00 +9°C° 0 mm 2 m/s 726 mmHg 95%
    06:00 +9°C° 0 mm 2 m/s 726 mmHg 94%
    07:00 +9°C° 0 mm 2 m/s 726 mmHg 93%
    08:00 +10°C° 0 mm 2 m/s 725 mmHg 91%
    09:00 +10°C° 0 mm 3 m/s 725 mmHg 90%
    10:00 +11°C° 0 mm 3 m/s 725 mmHg 88%
    11:00 +12°C° 0 mm 3 m/s 725 mmHg 84%
    12:00 +13°C° 0 mm 4 m/s 725 mmHg 80%
    13:00 +14°C° 0 mm 4 m/s 725 mmHg 76%
    14:00 +14°C° 0 mm 4 m/s 725 mmHg 76%
    15:00 +13°C° 0 mm 4 m/s 725 mmHg 76%
    16:00 +13°C° 0 mm 4 m/s 725 mmHg 76%
    17:00 +13°C° 0.1 mm 4 m/s 725 mmHg 80%
    18:00 +12°C° 0.1 mm 4 m/s 725 mmHg 84%
    19:00 +11°C° 0.1 mm 4 m/s 725 mmHg 88%
    20:00 +11°C° 0.1 mm 3 m/s 725 mmHg 89%
    21:00 +11°C° 0.1 mm 3 m/s 725 mmHg 90%
    22:00 +10°C° 0.1 mm 3 m/s 725 mmHg 91%
    23:00 +10°C° 0.1 mm 3 m/s 725 mmHg 91%
    Mostrar mais